Mattoon, IL

3:45 PM CDT on September 15, 2019 (GMT -0500)
Coles County Memorial

Weather History for KMTO - August, 2019

Change the Weather History Date:

Sunday, August 25, 2019

  Actual Average Record
Temperature  
Mean Temperature 67 °F 73 °F  
Max Temperature 79 °F 84 °F 100 °F (1983)
Min Temperature 55 °F 62 °F 48 °F (1958)
Degree Days  
Heating Degree Days 0 0  
Month to date heating degree days 0 0  
Since 1 June heating degree days 4 18  
Since 1 July heating degree days 0 1  
Cooling Degree Days 2 8  
Month to date cooling degree days 224 234  
Year to date cooling degree days 942 875  
Since 1 June cooling degree days 817 787  
Growing Degree Days 17 (Base 50)    
Moisture  
Dew Point 61 °F    
Average Humidity 81    
Maximum Humidity 100    
Minimum Humidity 62    
Precipitation  
Precipitation T in 0.11 in 1.35 in (1975)
Month to date precipitation 3.80 2.44  
Year to date precipitation 24.76 25.28  
Sea Level Pressure  
Sea Level Pressure 30.00 in    
Wind  
Wind Speed 7 mph (East)    
Max Wind Speed 13 mph    
Max Gust Speed 18 mph    
Visibility 10 miles    
Events Rain    
T = Trace of Precipitation, MM = Missing Value Source: NWS Daily Summary

Daily Weather History Graph

Daily Weather History Graph

Search for Another Location

Airport or City:

Astronomy

Aug. 25, 2019 Rise Set
Actual Time 6:14 AM CDT 7:34 PM CDT
Civil Twilight 5:46 AM CDT 8:02 PM CDT
Nautical Twilight 5:13 AM CDT 8:36 PM CDT
Astronomical Twilight 4:37 AM CDT 9:11 PM CDT
Moon 12:50 AM CDT (8/25) 3:54 PM CDT (8/25)
Length of Visible Light 14h 16m
Length of Day
13h 20m
Waning Crescent, 29% of the Moon is Illuminated
Aug 25
Waning Crescent
Aug 30
New
Sep 5
First Quarter
Sep 13
Full
Sep 21
Last Quarter

Hourly Weather History & Observations

Time (CDT) Temp. Dew Point Humidity Pressure Visibility Wind Dir Wind Speed Gust Speed Precip Events Conditions
12:53 AM 59.0 °F 55.0 °F 87% 30.10 in 10.0 mi ENE 6.9 mph - N/A   Clear
1:53 AM 57.9 °F 55.0 °F 90% 30.09 in 10.0 mi ENE 5.8 mph - N/A   Clear
2:53 AM 57.0 °F 54.0 °F 89% 30.08 in 10.0 mi ENE 4.6 mph - N/A   Clear
3:53 AM 55.9 °F 54.0 °F 93% 30.07 in 10.0 mi NE 4.6 mph - N/A   Clear
4:53 AM 55.9 °F 54.0 °F 93% 30.06 in 10.0 mi East 3.5 mph - N/A   Clear
5:53 AM 55.9 °F 55.0 °F 97% 30.06 in 10.0 mi ENE 4.6 mph - N/A   Clear
6:53 AM 57.9 °F 55.9 °F 93% 30.06 in 10.0 mi ENE 4.6 mph - N/A   Partly Cloudy
7:53 AM 61.0 °F 57.0 °F 87% 30.07 in 10.0 mi East 5.8 mph - N/A   Clear
8:53 AM 66.0 °F 57.9 °F 75% 30.07 in 10.0 mi East 8.1 mph - N/A   Clear
9:53 AM 69.1 °F 57.9 °F 68% 30.04 in 10.0 mi East 8.1 mph - N/A   Clear
10:53 AM 72.0 °F 61.0 °F 68% 30.04 in 10.0 mi East 8.1 mph - N/A   Clear
11:53 AM 73.9 °F 62.1 °F 66% 30.03 in 10.0 mi East 8.1 mph - N/A   Scattered Clouds
12:53 PM 75.9 °F 63.0 °F 64% 30.01 in 10.0 mi East 6.9 mph - N/A   Clear
1:53 PM 77.0 °F 64.0 °F 64% 29.99 in 10.0 mi ESE 9.2 mph - N/A   Mostly Cloudy
2:53 PM 79.0 °F 64.0 °F 60% 29.97 in 10.0 mi SE 10.4 mph - N/A   Scattered Clouds
3:53 PM 75.9 °F 64.0 °F 67% 29.96 in 10.0 mi ESE 9.2 mph - 0.00 in   Scattered Clouds
4:53 PM 75.9 °F 66.0 °F 71% 29.92 in 10.0 mi ESE 8.1 mph - 0.00 in Rain Light Rain
5:53 PM 75.0 °F 66.0 °F 73% 29.92 in 10.0 mi East 3.5 mph - 0.00 in   Clear
6:53 PM 73.9 °F 66.0 °F 76% 29.92 in 10.0 mi ENE 4.6 mph - N/A   Overcast
7:53 PM 73.9 °F 64.0 °F 71% 29.91 in 10.0 mi East 5.8 mph - N/A   Overcast
8:53 PM 73.0 °F 64.0 °F 73% 29.91 in 10.0 mi East 6.9 mph - N/A   Overcast
9:53 PM 72.0 °F 64.0 °F 76% 29.91 in 10.0 mi East 6.9 mph - N/A   Overcast
10:53 PM 71.1 °F 64.9 °F 81% 29.89 in 10.0 mi ESE 5.8 mph - 0.00 in Rain Light Rain
11:53 PM 71.1 °F 64.9 °F 81% 29.88 in 10.0 mi SE 9.2 mph - 0.00 in   Mostly Cloudy